Find Starlink 36204

NORAD ID: 68549 Int'l Des: 2026-070 Owner: SPXS Country: US Constellation: starlink operational
LEOCIRCULAR

Live Position

Loading 3D Globe...

About Starlink 36204

Description loading...

Upcoming Passes

Passes for default location (London). Set your location on the main map for personalized predictions.

Altitude History

Loading altitude history...

Two-Line Element Set

1 68549U 26070H 26139.25001157 -.02438125 00000-0 -59332-1 0 9999
2 68549 53.1588 34.7254 0000667 98.9552 114.1394 15.43995538 5927
Epoch: May 19, 2026 • Age: 8 hours

Current Status

Altitude 446.3 km
Velocity 7.64 km/s
Sub-Earth Point -23.34°S, 148.36°E
Launch Date Apr 2, 2026
Age 0.1 years
Type internet

Technical Details

Classification Payload
Mass 575.00 kg
Dry Mass 530.00 kg
Total Mass 575.00 kg
Length 0.30 m
Diameter 4.10 m
Span 29.00 m
Shape Box + pan
Manufacturer SPXS
Bus Type Starlink V2MO
Phase Status In Orbit
Owner/State SPXS/US

Most Searched